SB KEPS @ AMSAT $ORB23155.1 2Line Orbital Elements 23155.AMSAT QST de W1STR AMSAT Orbital Elements for Amateur Satellites in TLE Format From Orbital Analysis Office New England Sci-Tech STEM Education Center Natick, MA June 04, 2023 To all radio amateurs Decode two line element sets with the following key: 1 AAAAAU 00 0 0 BBBBB.BBBBBBBB .CCCCCCCC 00000-0 ******** 0 DDDDZ 2 AAAAA EEE.EEEE FFF.FFFF GGGGGGG HHH.HHHH III.IIII JJ.JJJJJJJJKKKKKZ KEY: A-CATALOGNUM B-EPOCHTIME C-DECAY *-BSTAR D-ELSETNUM E-INCLINATION F-RAAN G-ECCENTRICITY H-ARGPERIGEE I-MNANOM J-MNMOTION K-ORBITNUM Z-CHECKSUM For more detail see www.amsat.org/keplerian-elements-formats/ AO-07 1 07530U 74089B 23154.79367194 -.00000044 00000-0 10508-4 0 9991 2 07530 101.9464 141.3806 0012648 89.1430 32.2129 12.53664600221738 UO-11 1 14781U 84021B 23154.51292972 .00001444 00000-0 17583-3 0 9998 2 14781 97.6566 131.9743 0006673 241.9499 118.1042 14.84862945113115 AO-16 1 20439U 90005D 23154.77847431 .00000188 00000-0 85598-4 0 9994 2 20439 98.8826 144.6659 0009747 240.1220 243.8410 14.33103795743231 LO-19 1 20442U 90005G 23154.76726303 .00000172 00000-0 79365-4 0 9999 2 20442 98.8430 130.9969 0011018 213.6023 146.4463 14.33257942743485 HUBBLE 1 20580U 90037B 23154.60361216 .00004104 00000-0 21512-3 0 9997 2 20580 28.4707 358.3810 0002154 229.3622 164.9942 15.13170672619409 MET-2/21 1 22782U 93055A 23154.39150744 .00000011 00000-0 -35834-5 0 9992 2 22782 82.5488 95.7152 0023761 83.0150 32.2792 13.83886173502542 AO-27 1 22825U 93061C 23154.70678141 .00000144 00000-0 73263-4 0 9991 2 22825 98.8416 197.3794 0009566 105.8894 254.3342 14.30304690548637 IO-26 1 22826U 93061D 23154.71361098 .00000161 00000-0 79106-4 0 9994 2 22826 98.8361 197.2498 0010142 93.4261 266.8081 14.30665318548881 FO-29 1 24278U 96046B 23154.51172731 -.00000020 00000-0 12644-4 0 9994 2 24278 98.5277 134.9316 0351319 92.3571 271.7832 13.53145329323081 NOAA-15 1 25338U 98030A 23154.68807649 .00000256 00000-0 12478-3 0 9992 2 25338 98.6062 183.9753 0010195 0.4530 359.6658 14.26325974303335 GO-32 1 25397U 98043D 23154.44740349 .00000097 00000-0 62047-4 0 9999 2 25397 98.8680 111.7855 0001766 134.6450 225.4872 14.23875061293379 ISS 1 25544U 98067A 23154.85540740 .00013036 00000-0 23226-3 0 9999 2 25544 51.6425 34.6297 0005588 48.6036 28.7103 15.50450003399723 NO-44 1 26931U 01043C 23154.57099675 .00000183 00000-0 10096-3 0 9993 2 26931 67.0510 231.9825 0007937 274.5438 85.4756 14.30920084131631 SO-50 1 27607U 02058C 23154.55871852 .00001468 00000-0 21817-3 0 9994 2 27607 64.5547 306.7105 0070301 227.4151 132.1008 14.77270445100210 CO-55 1 27844U 03031E 23154.53636744 .00000373 00000-0 18566-3 0 9997 2 27844 98.6775 161.9934 0010242 158.4174 201.7438 14.22776984 33798 CO-57 1 27848U 03031J 23154.75380871 .00000317 00000-0 16227-3 0 9992 2 27848 98.6812 162.6287 0009817 172.3958 187.7371 14.22288199 33643 RS-22 1 27939U 03042A 23154.78379160 .00001298 00000-0 23314-3 0 9991 2 27939 98.2416 301.6455 0012703 173.3621 316.7101 14.68358921 52577 NOAA-18 1 28654U 05018A 23154.75338310 .00000231 00000-0 14768-3 0 9999 2 28654 98.9096 229.2084 0015141 61.1237 299.1452 14.12945607929671 CO-58 1 28895U 05043F 23154.34925065 .00001699 00000-0 32098-3 0 9993 2 28895 98.1518 286.5168 0017496 114.7549 245.5477 14.65622849938786 CO-65 1 32785U 08021C 23154.45079696 .00003942 00000-0 39184-3 0 9993 2 32785 97.7051 120.7017 0013253 142.4944 217.7202 14.92190239818778 AAUSAT2 1 32788U 08021F 23154.44296951 .00008834 00000-0 64923-3 0 9994 2 32788 97.5573 134.1719 0009425 50.9983 309.2080 15.03622009821041 DO-64 1 32789U 08021G 23154.61602801 .00044684 00000-0 13020-2 0 9993 2 32789 97.3026 176.2082 0008856 154.0123 206.1567 15.35210857825400 CO-66 1 32791U 08021J 23154.43267845 .00004825 00000-0 42830-3 0 9996 2 32791 97.6547 125.9603 0013757 96.8476 263.4311 14.96554218819600 RS-30 1 32953U 08025A 23154.76401686 .00000031 00000-0 15443-3 0 9994 2 32953 82.5019 325.4464 0019147 211.5563 148.4370 12.43124625681981 PRISM 1 33493U 09002B 23154.57055817 .00009231 00000-0 63197-3 0 9990 2 33493 98.2456 168.1377 0018180 93.2833 267.0472 15.06201634781694 NOAA-19 1 33591U 09005A 23154.72529091 .00000217 00000-0 14168-3 0 9998 2 33591 99.1002 200.4366 0012787 281.4128 78.5607 14.12763291738047 SRMSAT 1 37841U 11058D 23154.70494286 .00000449 00000-0 10115-3 0 9991 2 37841 19.9727 291.5422 0011727 243.7789 144.5706 14.10897813601122 HRBE 1 37855U 11061F 23154.43706945 .00027559 00000-0 87636-3 0 9991 2 37855 101.7062 108.4228 0121674 82.5088 278.9939 15.25631469634466 RS-40 1 38735U 12041C 23154.78814711 .00000026 00000-0 11719-3 0 9996 2 38735 82.4786 46.4460 0017112 329.6028 30.4058 12.42594044492144 ZACUBE-1 1 39417U 13066B 23154.48559361 .00003411 00000-0 39686-3 0 9990 2 39417 97.6844 116.6332 0054083 334.4445 25.4098 14.84901172515166 Delfi-N3xt 1 39428U 13066N 23154.78865089 .00003065 00000-0 44672-3 0 9998 2 39428 97.8340 80.1007 0109347 231.9492 127.1811 14.72530185510349 GOMX-1 1 39430U 13066Q 23154.70321990 .00002673 00000-0 46853-3 0 9998 2 39430 97.7818 46.6284 0146225 16.6721 343.9215 14.61776032507561 LO-74 1 39440U 13066AA 23154.77698234 .00003339 00000-0 43323-3 0 9993 2 39440 97.7721 103.9681 0077241 71.2946 289.6630 14.79324042513372 AO-73 1 39444U 13066AE 23154.46400594 .00004313 00000-0 48079-3 0 9999 2 39444 97.6709 119.1469 0051891 319.7914 39.9468 14.86586997514195 SPROUT 1 39770U 14029E 23154.30351618 .00017188 00000-0 13224-2 0 9993 2 39770 97.9839 281.1304 0006142 348.7953 11.3133 15.01745615490071 DTUSAT-2 1 40030U 14033W 23154.34156274 .00003639 00000-0 35576-3 0 9995 2 40030 97.9678 94.7039 0010406 346.9090 13.1857 14.92967494485938 EO-80 1 40032U 14033Y 23154.78652835 .00004676 00000-0 45531-3 0 9993 2 40032 97.9680 95.1719 0010195 347.4588 12.6376 14.92975035486498 HODOYOSHI-1 1 40299U 14070B 23154.73099527 .00009603 00000-0 29920-3 0 9996 2 40299 97.1948 217.7465 0009379 333.1755 26.9002 15.33421919476757 FIREBIRD FU3 1 40377U 15003B 23154.45013712 .00138156 00000-0 10900-2 0 9994 2 40377 99.0757 109.4070 0038116 247.7383 111.9830 15.69993566462480 FIREBIRD FU4 1 40378U 15003C 23154.45431302 .00125143 00000-0 99168-3 0 9990 2 40378 99.0771 109.7361 0038424 247.1358 112.5840 15.69909568462501 GRIFEX 1 40379U 15003D 23154.79089698 .00033378 00000-0 74263-3 0 9992 2 40379 99.0791 88.3244 0080571 318.4859 41.0279 15.40141082461323 XW-2C 1 40906U 15049H 23154.78191632 .00010443 00000-0 40652-3 0 9992 2 40906 97.4928 161.8779 0011139 199.0204 161.0619 15.26131335426353 XW-2D 1 40907U 15049J 23154.75203571 .00012299 00000-0 45191-3 0 9990 2 40907 97.4909 162.3443 0010497 190.8208 169.2807 15.28008628426434 LILACSAT-2 1 40908U 15049K 23154.72496816 .00004956 00000-0 23579-3 0 9991 2 40908 97.5240 157.8214 0012512 231.9059 128.1048 15.19576807425754 XW-2E 1 40909U 15049L 23154.78447767 .00026652 00000-0 72063-3 0 9998 2 40909 97.4520 168.4850 0010203 156.6425 203.5285 15.37645411427081 XW-2F 1 40910U 15049M 23154.71131666 .00025771 00000-0 71140-3 0 9997 2 40910 97.4613 167.6452 0010881 160.1273 200.0397 15.37001431426812 XW-2B 1 40911U 15049N 23154.74608986 .00011853 00000-0 43857-3 0 9995 2 40911 97.4887 162.7838 0010417 192.5126 167.5856 15.27789484426313 DCBB 1 40912U 15049P 23154.72082315 .00033385 00000-0 75774-3 0 9993 2 40912 97.4165 172.2457 0011368 126.5004 233.7293 15.42913655427536 IO-86 1 40931U 15052B 23154.52075676 .00001142 00000-0 68712-4 0 9999 2 40931 5.9986 184.0670 0012505 101.9020 258.2510 14.77226164415214 ATHENOXAT-1 1 41168U 15077C 23154.72340750 .00127360 00000-0 17132-2 0 9998 2 41168 14.9882 326.9793 0001358 201.5234 158.5036 15.55973017414210 ChubuSat-2 1 41338U 16012B 23154.73513813 .00003662 00000-0 25289-3 0 9991 2 41338 31.0036 303.8064 0012348 43.9359 316.2258 15.03904091400350 ChubuSat-3 1 41339U 16012C 23154.72861990 .00003403 00000-0 23544-3 0 9998 2 41339 31.0099 300.9369 0012261 51.1612 309.0117 15.03768888400359 Horyu-4 1 41340U 16012D 23154.55337362 .00006387 00000-0 40175-3 0 9995 2 41340 31.0043 271.0102 0011738 105.2757 254.9178 15.07728537400662 e-st@r-II 1 41459U 16025D 23154.80677270 .00029455 00000-0 86548-3 0 9998 2 41459 98.1864 354.7586 0109377 145.5216 215.3181 15.29252327390854 AAUSAT4 1 41460U 16025E 23154.56073706 .00092353 00000-0 13029-2 0 9997 2 41460 98.1609 6.6520 0062414 103.0244 257.7985 15.53963780391654 LO-87 1 41557U 16033B 23154.73326670 .00054565 00000-0 72732-3 0 9993 2 41557 97.3887 262.1033 0007882 183.7345 176.3853 15.57921412391530 NuSat2 1 41558U 16033C 23154.74782066 .00067808 00000-0 79019-3 0 9999 2 41558 97.4165 270.0986 0007604 178.7655 181.3623 15.61422544391871 Lapan A3 1 41603U 16040E 23154.78217320 .00002588 00000-0 11473-3 0 9992 2 41603 97.1661 180.9659 0012876 12.3363 347.8187 15.22390411385457 Pratham 1 41783U 16059A 23154.62639411 .00000794 00000-0 15928-3 0 9999 2 41783 97.8692 186.3440 0034018 141.5993 218.7641 14.63936536356997 TY-1 1 41844U 16066D 23154.78982960 .00050986 00000-0 83576-3 0 9994 2 41844 97.3670 173.7336 0011238 108.0546 252.1932 15.52237325365603 CAS-2T 1 41847U 16066G 23154.19985442 .00001015 00000-0 16138-3 0 9999 2 41847 98.5045 222.8181 0358855 239.3164 117.2206 14.39648448344790 EO-88 1 42017U 17008BX 23154.19303081 .00175910 00000-0 11663-2 0 9992 2 42017 97.2109 224.9552 0002587 185.9826 174.1409 15.74985509351260 CAS-4B 1 42759U 17034B 23154.56221813 .00006574 00000-0 33572-3 0 9990 2 42759 43.0138 191.4188 0010564 7.1539 352.9458 15.17211474329565 CAS-4A 1 42761U 17034D 23154.57836731 .00006361 00000-0 32512-3 0 9992 2 42761 43.0133 189.8606 0011214 8.9624 351.1423 15.17218561329574 NIUSat 1 42766U 17036B 23154.60670541 .00021687 00000-0 56769-3 0 9996 2 42766 97.1569 186.2277 0012045 144.5796 215.6252 15.38661559330520 Aalto 1 1 42775U 17036L 23154.57873609 .00014693 00000-0 43342-3 0 9994 2 42775 97.1523 185.0205 0011492 146.1040 214.0941 15.35026890330431 URSA MAIOR 1 42776U 17036M 23154.59328262 .00017810 00000-0 49487-3 0 9997 2 42776 97.1534 186.3323 0011262 142.9202 217.2823 15.36862795330503 Max Valier Sat 1 42778U 17036P 23154.57339242 .00020261 00000-0 53850-3 0 9990 2 42778 97.1558 189.7436 0010181 141.6422 218.5549 15.38225995330632 Pegasus 1 42784U 17036V 23154.56301963 .00032441 00000-0 65987-3 0 9992 2 42784 97.1477 192.1553 0009168 137.4029 222.7933 15.46182782330871 SUCHAI 1 1 42788U 17036Z 23154.66746716 .00061507 00000-0 89667-3 0 9992 2 42788 97.1452 195.8395 0008335 136.5707 223.6206 15.55465336331198 SKCUBE 1 42789U 17036AA 23153.66352226 .00049124 00000-0 86036-3 0 9999 2 42789 97.1461 193.3572 0008526 136.7128 223.4795 15.50410796330869 VZLUSAT 1 1 42790U 17036AB 23154.09632328 .02142074 51870-2 18585-2 0 9999 2 42790 97.1271 202.7304 0011020 237.1760 122.8466 16.14468390331502 VENTA 1 1 42791U 17036AC 23154.58337810 .00034312 00000-0 69139-3 0 9994 2 42791 97.1492 193.3537 0008529 134.5396 225.6553 15.46452669330937 Robusta 1B 1 42792U 17036AD 23154.81649833 .00053790 00000-0 83721-3 0 9996 2 42792 97.1426 195.6891 0007738 132.7427 227.4480 15.53704094331131 D-SAT 1 42794U 17036AF 23154.48844773 .00004530 00000-0 36096-3 0 9992 2 42794 97.4635 147.1857 0116405 348.8407 11.0235 14.95602973323888 TechnoSat 1 42829U 17042E 23154.79054160 .00001767 00000-0 17237-3 0 9990 2 42829 97.3896 353.0363 0011810 270.9220 89.0647 14.93561093320498 AO-91 1 43017U 17073E 23154.18044725 .00006576 00000-0 45869-3 0 9998 2 43017 97.6329 39.0746 0235562 115.3712 247.2096 14.85881790299107 PICSAT 1 43132U 18004X 23154.74427419 .00061963 00000-0 87737-3 0 9999 2 43132 97.3297 237.6014 0006040 170.9746 189.1618 15.56276683300454 AO-92 1 43137U 18004AC 23154.21432656 .00030340 00000-0 64090-3 0 9997 2 43137 97.3290 233.2640 0006514 178.2940 181.8333 15.45111270300150 TianYi 2 1 43155U 18008A 23154.73764293 .00015639 00000-0 62509-3 0 9990 2 43155 97.2992 207.5834 0012293 4.4458 355.6887 15.25129133296606 Zhou Enlai 1 43156U 18008B 23154.75246010 .00018250 00000-0 71800-3 0 9991 2 43156 97.3039 207.6929 0009946 6.6054 353.5313 15.25651700296536 TianYi 6 1 43158U 18008D 23154.66203797 .00012508 00000-0 53983-3 0 9990 2 43158 97.3042 204.6058 0010168 11.3883 348.7582 15.22611029296365 S-Net D 1 43186U 18014G 23154.31134028 .00002652 00000-0 21549-3 0 9992 2 43186 97.6346 58.3787 0014435 203.6863 156.3698 15.00382398291472 S-Net B 1 43187U 18014H 23154.51243653 .00002470 00000-0 20104-3 0 9994 2 43187 97.6334 58.5062 0014670 201.4432 158.6179 15.00372079291505 S-Net A 1 43188U 18014J 23154.31250611 .00002737 00000-0 22223-3 0 9995 2 43188 97.6342 58.3966 0014643 202.2612 157.7978 15.00374794291474 S-Net C 1 43189U 18014K 23154.31460392 .00002825 00000-0 22933-3 0 9991 2 43189 97.6325 58.2901 0014992 198.8099 161.2573 15.00358161290021 Shaonian Xing 1 43199U 18015H 23154.66742046 .00146181 00000-0 10648-2 0 9993 2 43199 97.5425 313.2538 0008891 217.2004 142.8644 15.72820784297693 CubeBel-1 1 43666U 18083E 23154.73242362 .00028059 00000-0 76911-3 0 9990 2 43666 97.3805 186.2635 0011085 159.8078 200.3607 15.37200724255138 Changshagaoxin 1 43669U 18083H 23154.73719126 .00022515 00000-0 68698-3 0 9994 2 43669 97.3793 180.9702 0008787 157.3033 202.8600 15.33900502254880 Ten-Koh 1 43677U 18084G 23154.34212348 .00003095 00000-0 30321-3 0 9999 2 43677 98.0115 293.9788 0014960 188.9846 171.1108 14.92961994249999 PO-101 1 43678U 18084H 23154.72128972 .00001244 00000-0 12421-3 0 9996 2 43678 98.0212 298.4212 0009105 198.5987 161.4901 14.93383640250259 QO-100 1 43700U 18090A 23154.35257947 .00000163 00000-0 00000-0 0 9999 2 43700 0.0182 323.2492 0001710 134.8403 306.1982 1.00269437 16541 Reaktor Hello World 1 43743U 18096AA 23154.57284473 .00053232 00000-0 74152-3 0 9997 2 43743 97.3181 241.2233 0010122 221.3871 138.6618 15.56717182252059 MinXSS-2 1 43758U 18099A 23154.73017450 .00006647 00000-0 51787-3 0 9990 2 43758 97.5998 219.1052 0017188 166.9972 193.1699 15.01416638245724 AO-95 1 43770U 18099N 23154.14782631 .00004114 00000-0 33750-3 0 9996 2 43770 97.5738 216.0675 0012249 176.6714 183.4593 14.99707285245500 RANGE-B 1 43772U 18099Q 23154.16868721 .00006353 00000-0 49651-3 0 9999 2 43772 97.5797 218.8058 0009478 138.4807 221.7139 15.01398517245567 RANGE-A 1 43773U 18099R 23154.57941116 .00003825 00000-0 32488-3 0 9996 2 43773 97.5643 214.6072 0013830 156.2693 203.9170 14.98389161245529 MOVE-II 1 43780U 18099Y 23154.39495782 .00009529 00000-0 70255-3 0 9998 2 43780 97.5718 218.7135 0009252 193.7709 166.3266 15.03479830245665 SNUSat 2 1 43782U 18099AA 23154.71257868 .00004699 00000-0 38564-3 0 9997 2 43782 97.5717 217.1246 0014056 153.3824 206.8124 14.99603403245617 SnugLite 1 43784U 18099AC 23154.73500149 .00004770 00000-0 38544-3 0 9992 2 43784 97.5762 216.8091 0011214 158.3765 201.7934 15.00225790245654 ITASat 1 1 43786U 18099AE 23154.41401374 .00003197 00000-0 26537-3 0 9990 2 43786 97.5781 217.3587 0013377 163.1387 197.0284 14.99406956245588 EAGLET 1 1 43790U 18099AJ 23154.18478699 .00003847 00000-0 32163-3 0 9997 2 43790 97.5748 217.6098 0013806 165.1797 194.9833 14.98997710245285 ESEO 1 43792U 18099AL 23154.39675298 .00002509 00000-0 21930-3 0 9990 2 43792 97.5710 216.3308 0013229 163.1847 196.9816 14.97590013245321 CSIM 1 43793U 18099AM 23154.49434195 .00007479 00000-0 54481-3 0 9999 2 43793 97.5775 220.1165 0017027 166.8192 193.3482 15.03925856245527 Astrocast 0.1 1 43798U 18099AS 23154.15538562 .00007985 00000-0 60622-3 0 9996 2 43798 97.5855 219.1521 0013769 145.0319 215.1813 15.02383767245668 JO-97 1 43803U 18099AX 23154.18042686 .00005777 00000-0 46001-3 0 9995 2 43803 97.5696 217.1085 0013822 137.5226 222.7071 15.00679036245591 Suomi 100 1 43804U 18099AY 23154.17368507 .00005174 00000-0 41561-3 0 9995 2 43804 97.5674 216.9191 0018016 155.1638 205.0457 15.00340835245590 Al Farabi 2 1 43805U 18099AZ 23154.73163381 .00007303 00000-0 56048-3 0 9993 2 43805 97.5584 218.4693 0012489 146.4243 213.7776 15.02011288245733 CHOMPTT 1 43855U 18104G 23154.52690394 .00019088 00000-0 47947-3 0 9992 2 43855 85.0295 175.4452 0012351 25.9511 334.2357 15.39774044248475 ISAT 1 43879U 18111D 23154.50779161 .00004491 00000-0 34456-3 0 9997 2 43879 97.6451 59.1612 0013479 200.4684 159.6002 15.02230279242289 UWE-4 1 43880U 18111E 23154.50105967 .00004823 00000-0 37121-3 0 9997 2 43880 97.6323 59.8988 0017062 216.8513 143.1540 15.02025444242311 Sparrow 1 43881U 18111F 23154.51835684 .00004912 00000-0 37310-3 0 9994 2 43881 97.6523 60.4970 0008679 247.1737 112.8571 15.02606374242338 Lume 1 1 43908U 18111AJ 23154.61828031 .00025251 00000-0 52346-3 0 9998 2 43908 97.1425 38.0846 0010618 242.1072 117.9102 15.45659927247295 FO-99 1 43937U 19003F 23154.56238837 .00045502 00000-0 76698-3 0 9991 2 43937 97.0859 181.9512 0009735 332.1407 27.9324 15.51496607243939 AstroCast 0.2 1 44083U 19018F 23154.73217114 .00037475 00000-0 69186-3 0 9998 2 44083 97.2663 214.4124 0002846 277.3590 82.7338 15.49001592232335 AISTechSat 3 1 44103U 19018AB 23154.70823414 .00022497 00000-0 55698-3 0 9995 2 44103 97.2540 213.2648 0007148 326.9812 33.0987 15.40409594232433 AISat 1 1 44104U 19018AC 23154.22652005 .00015954 00000-0 31577-3 0 9999 2 44104 97.3741 245.3210 0039475 309.6394 50.1374 15.46302722233566 Prox-1 1 44339U 19036A 23154.35200797 .00005867 00000-0 11718-2 0 9996 2 44339 23.9994 132.4839 0010393 113.2882 246.8705 14.59272785209577 Move-IIb 1 44398U 19038N 23154.51629094 .00038377 00000-0 98408-3 0 9990 2 44398 97.6587 136.6938 0012231 353.4590 6.6493 15.39181771216567 SONATE 1 44400U 19038Q 23154.68065613 .00009516 00000-0 42936-3 0 9991 2 44400 97.6828 132.0516 0020663 5.1201 355.0241 15.21034357216187 BeeSat 9 1 44412U 19038AC 23154.67001391 .00020922 00000-0 73398-3 0 9996 2 44412 97.6731 134.8712 0015098 3.3078 356.8258 15.29354538216090 JAISAT-1 1 44419U 19038F 23154.75339142 .00021147 00000-0 73469-3 0 9999 2 44419 97.6728 136.0342 0014151 0.1551 359.9691 15.29681917216488 Taurus 1 1 44530U 19059C 23154.68887253 .00004125 00000-0 10756-2 0 9995 2 44530 98.5545 262.2825 0014505 132.8659 227.3755 14.49986842196686 Duchifat 3 1 44854U 19089C 23154.74901399 .00006150 00000-0 41805-3 0 9992 2 44854 36.9601 171.5867 0009893 212.4653 147.5483 15.06043909190817 OPS-SAT 1 44878U 19092F 23154.49625819 .00021114 00000-0 64390-3 0 9995 2 44878 97.4747 343.0756 0009708 177.1581 182.9718 15.33923352191691 TO-108 1 44881U 19093C 23154.73049255 .00001039 00000-0 13564-3 0 9992 2 44881 97.8616 233.4105 0016037 119.7075 240.5737 14.82507289186806 FloripaSat 1 1 44885U 19093G 23154.74417217 .00003383 00000-0 39532-3 0 9991 2 44885 97.8683 236.0553 0015037 122.3143 237.9530 14.85710231186958 RS-44 1 44909U 19096E 23154.54048743 .00000030 00000-0 77474-4 0 9997 2 44909 82.5221 357.0160 0216728 218.6679 139.8736 12.79720955160411 BY70-2 1 45857U 20042B 23154.78107917 .00015202 00000-0 15793-2 0 9999 2 45857 97.9264 234.6376 0009251 62.3904 297.8252 14.89976778157543 UPMSat 2 1 46276U 20061E 23154.42345646 .00007766 00000-0 33079-3 0 9994 2 46276 97.3473 222.2927 0002285 67.5364 292.6114 15.23236995152192 AmicalSat 1 46287U 20061R 23154.18552552 .00011041 00000-0 51919-3 0 9999 2 46287 97.4016 220.9608 0003655 126.3394 233.8179 15.19741284151585 SALSAT 1 46495U 20068K 23154.38242428 .00004034 00000-0 26853-3 0 9990 2 46495 97.7702 102.2412 0016183 160.3308 199.8546 15.07614341146997 CAPE 3 1 47309U 21002A 23154.41877927 .00028982 00000-0 71545-3 0 9992 2 47309 60.6765 113.0913 0014322 177.6527 182.4638 15.40306405132163 AO-109 1 47311U 21002C 23154.27187605 .00023133 00000-0 61210-3 0 9997 2 47311 60.6800 112.0064 0014366 168.5452 191.5972 15.38291165132149 MiTEE 1 1 47314U 21002F 23154.36432213 .00701549 21391-3 19011-2 0 9992 2 47314 60.6591 75.3263 0004428 211.5330 148.5526 15.93869901132791 ExoCube 2 1 47319U 21002L 23154.13465859 .00024112 00000-0 65333-3 0 9998 2 47319 60.6781 114.6304 0014767 173.3267 186.8027 15.37530689132057 UVSQ-SAT 1 47438U 21006AB 23154.70411050 .00013472 00000-0 55775-3 0 9997 2 47438 97.3852 212.0078 0011506 126.9246 233.3047 15.23992908130593 YUSAT 1 1 47439U 21006AC 23154.68566112 .00016608 00000-0 63981-3 0 9997 2 47439 97.3860 212.6946 0011028 125.9158 234.3105 15.26362511130638 SOMP 2b 1 47445U 21006AJ 23154.62051991 .00012405 00000-0 52501-3 0 9999 2 47445 97.3819 211.1986 0011318 131.3174 228.9038 15.23267269130554 IDEASSat 1 47458U 21006AX 23154.13669442 .00012338 00000-0 53129-3 0 9997 2 47458 97.3915 211.4970 0010703 131.8353 228.3799 15.22689319130463 CubeSX-Sirius-HSE 1 47951U 21022V 23154.78567545 .00008313 00000-0 46998-3 0 9999 2 47951 97.4997 52.3609 0019692 26.9697 333.2553 15.13171889121006 CubeSX-HSE 1 47952U 21022W 23154.75946821 .00007882 00000-0 44505-3 0 9997 2 47952 97.4993 52.3811 0019594 26.6388 333.5846 15.13235300121000 KSU-Cubesat 1 47954U 21022Y 23154.68677152 .00008365 00000-0 46147-3 0 9990 2 47954 97.4998 52.6668 0018948 26.0248 334.1932 15.14059863120732 GRBAlpha 1 47959U 21022AD 23154.74682805 .00008090 00000-0 45573-3 0 9990 2 47959 97.4995 52.4490 0019421 26.7607 333.4622 15.13311973119826 Orbicraft-Zorkiy 1 47960U 21022AE 23154.77625873 .00008990 00000-0 49669-3 0 9996 2 47960 97.5028 52.8857 0019077 26.1066 334.1123 15.13982452120537 STECCO 1 47962U 21022AG 23154.76692286 .00015597 00000-0 73156-3 0 9998 2 47962 97.4996 55.1393 0013349 19.3937 340.7803 15.19676697120007 DO-111 1 47963U 21022AH 23154.71458756 .00172483 00000-0 23836-2 0 9993 2 47963 97.4976 62.6199 0005074 55.9283 304.2452 15.56541530120495 MO-110 1 47964U 21022AJ 23154.29711897 .00016982 00000-0 77777-3 0 9990 2 47964 97.5011 55.2509 0015214 15.2502 344.9189 15.20454825119969 FEES 1 48082U 21022AL 23154.50223139 .00026278 00000-0 10074-2 0 9998 2 48082 97.5002 56.5779 0010498 13.8911 346.2614 15.26437251119778 TUBIN 1 48900U 21059X 23154.78551382 .00007707 00000-0 36899-3 0 9991 2 48900 97.5984 288.3027 0008255 335.0980 24.9855 15.19213001107142 IT-SPINS 1 49017U 21013G 23154.35099538 .00024575 00000-0 58239-3 0 9998 2 49017 51.5896 146.5200 0005576 298.8223 61.2201 15.41589771107572 LEDSAT 1 49069U 21073D 23154.77039249 .00007290 00000-0 40296-3 0 9999 2 49069 97.4828 225.8730 0024934 163.6140 196.5903 15.13919960 98877 CUTE 1 49263U 21088D 23154.15900268 .00007940 00000-0 51303-3 0 9994 2 49263 97.5447 220.2019 0016295 313.5668 46.4206 15.08385460 92174 TeikyoSat 4 1 49396U 21102B 23154.14341210 .00001974 00000-0 15390-3 0 9990 2 49396 97.5168 206.5660 0016856 127.9386 232.3365 15.02195996 85662 Z-Sat 1 49399U 21102E 23154.71952892 .00002792 00000-0 20117-3 0 9992 2 49399 97.4844 208.2301 0023566 114.2384 246.1309 15.04746746 85869 KOSEN 1 1 49402U 21102H 23154.67641542 .00004190 00000-0 28624-3 0 9994 2 49402 97.4785 208.6751 0022841 103.8545 256.5225 15.06482268 85926 HO-113 1 50466U 21131B 23154.74912755 .00000583 00000-0 20364-3 0 9998 2 50466 98.5517 236.3357 0004630 164.8438 195.2888 14.38904955 75421 Tevel-3 1 50988U 22002E 23154.72648357 .00016055 00000-0 65306-3 0 9993 2 50988 97.4342 221.7877 0006164 277.0182 83.0354 15.24591470 76711 Tevel-8 1 50989U 22002F 23154.74465060 .00016136 00000-0 65764-3 0 9992 2 50989 97.4357 221.8635 0006253 275.9474 84.1051 15.24525337 76716 Tevel-5 1 50998U 22002Q 23154.74387182 .00016919 00000-0 67155-3 0 9995 2 50998 97.4335 222.1730 0007448 270.6015 89.4369 15.25394606 76749 Tevel-6 1 50999U 22002R 23154.74239536 .00017043 00000-0 67645-3 0 9998 2 50999 97.4333 222.1663 0007462 270.4597 89.5786 15.25394636 76749 Tevel-1 1 51013U 22002AF 23154.73588227 .00016540 00000-0 67355-3 0 9998 2 51013 97.4336 221.7421 0006155 276.3793 83.6743 15.24546409 76719 Grizu-263a 1 51025U 22002AT 23154.74236986 .00067601 00000-0 15096-2 0 9992 2 51025 97.4486 226.9695 0007396 248.7583 111.2875 15.43269571 76982 NO-116 1 51031U 22002AZ 23154.13869715 .00031911 00000-0 10416-2 0 9990 2 51031 97.4465 223.9751 0008191 269.8573 90.1730 15.31678672 76756 IRIS-A 1 51044U 22002BN 23154.17624321 .00008320 00000-0 39892-3 0 9998 2 51044 97.4355 219.8487 0006554 290.1840 69.8690 15.19135713 76537 Tevel-7 1 51062U 22002CG 23154.74579999 .00016210 00000-0 66031-3 0 9993 2 51062 97.4352 221.8383 0006241 275.1220 84.9306 15.24542055 76719 Tevel-4 1 51063U 22002CH 23154.75143025 .00015934 00000-0 65008-3 0 9997 2 51063 97.4353 221.8286 0006224 275.1882 84.8645 15.24492239 76711 Tevel-2 1 51069U 22002CP 23154.72832983 .00016604 00000-0 67522-3 0 9996 2 51069 97.4339 221.7616 0006145 276.4233 83.6305 15.24593396 76719 DELFI-PQ 1 51074U 22002CU 23154.77081423 .00031579 00000-0 93031-3 0 9994 2 51074 97.4600 226.8991 0007901 295.3988 64.6437 15.34951282 76949 SO-115 1 51080U 22002DA 23154.43837123 .00019426 00000-0 70864-3 0 9996 2 51080 97.4618 225.1428 0008908 309.3276 50.7173 15.28157621 76790 SO-114 1 51081U 22002DB 23154.42772876 .00020434 00000-0 74153-3 0 9995 2 51081 97.4609 225.1023 0009155 308.5578 51.4841 15.28315290 76791 OreSat0 1 52017U 22026K 23154.78504720 .00014060 00000-0 57107-3 0 9999 2 52017 97.5080 157.1416 0024575 128.2248 232.1206 15.24407711 67507 Planetum 1 1 52738U 22057G 23154.32549093 .00011787 00000-0 55060-3 0 9994 2 52738 97.5374 270.2956 0007424 46.6319 313.5533 15.19940492 56557 Foresail-1 1 52766U 22057AL 23154.75742606 .00007696 00000-0 36818-3 0 9991 2 52766 97.5491 271.6165 0012260 23.4661 336.7130 15.19200801 56645 SNUGLITE 2 1 52899U 22065F 23154.64279305 .00001117 00000-0 24597-3 0 9999 2 52899 98.0676 299.8629 0006701 256.1986 103.8469 14.59273287 48884 CTIM 1 52950U 22074G 23154.78651918 .00038888 00000-0 89889-3 0 9996 2 52950 44.9984 74.1353 0012090 146.1686 213.9976 15.41841259 51539 IO-117 1 53106U 22080B 23149.84195747 -.00000003 00000-0 00000+0 0 9994 2 53106 70.1621 326.0976 0008371 189.0727 170.9782 6.42557054 20576 AstroBioCubeSat 1 53107U 22080C 23025.30817895 -.00000003 00000-0 00000-0 0 9995 2 53107 70.1710 9.4734 0013545 210.3158 149.6718 6.42110537 12478 SelfieSat 1 53951U 22057BC 23154.30677256 .00014477 00000-0 64497-3 0 9996 2 53951 97.5420 270.8703 0008979 37.8252 322.3613 15.21509527 56579 FO-118 1 54684U 22167C 23154.72457894 .00009969 00000-0 55534-3 0 9994 2 54684 97.5609 292.3987 0013652 26.8828 333.3108 15.13736068 26645 KILICSAT 1 56181U 23054D 23154.70817087 .00010416 00000-0 45393-3 0 9997 2 56181 97.4068 49.7919 0011777 84.9797 275.2783 15.22313270 8124 SSS-2B 1 56184U 23054G 23154.63843494 .00010017 00000-0 43472-3 0 9996 2 56184 97.4130 49.7731 0013175 85.0172 275.2568 15.22450510 8111 CIRBE 1 56188U 23054L 23154.69365046 .00011237 00000-0 48120-3 0 9998 2 56188 97.4082 49.8199 0012041 79.7642 280.4952 15.22886757 8125 INSPIRE-Sat 7 1 56211U 23054AK 23154.71211602 .00014365 00000-0 58527-3 0 9993 2 56211 97.4109 49.9661 0016640 64.4907 295.8049 15.24448962 8133 RoseyCubesat 1 1 56212U 23054AL 23154.70702200 .00014919 00000-0 60390-3 0 9998 2 56212 97.4118 49.9765 0017059 63.9445 296.3547 15.24653097 8131 ARKSAT 1 1 56311U 98067VC 23154.05448847 .00055031 00000-0 79608-3 0 9998 2 56311 51.6397 37.6969 0005578 56.7990 303.3536 15.55348049 6160 AuroraSat 1 56312U 98067VD 23154.05145302 .00066972 00000-0 95006-3 0 9995 2 56312 51.6387 37.6760 0004851 56.9368 303.2088 15.55799992 6194 Ex-Alta 2 1 56313U 98067VE 23154.05490334 .00055173 00000-0 79782-3 0 9998 2 56313 51.6391 37.6988 0005297 56.3129 303.8366 15.55359228 6184 LightCube 1 56314U 98067VF 23154.05376743 .00063752 00000-0 90869-3 0 9997 2 56314 51.6390 37.6898 0005085 33.0125 327.1183 15.55690606 6215 NEUDOSE 1 56315U 98067VG 23153.94361659 .00040209 00000-0 61090-3 0 9991 2 56315 51.6394 38.4542 0006298 35.5481 324.5928 15.54140679 6143 YukonSat 1 56316U 98067VH 23154.06579639 .00049276 00000-0 73086-3 0 9996 2 56316 51.6395 37.7710 0005739 34.8421 325.2945 15.54712653 6187 SNIPE 4 1 56744U 23072B 23154.79642643 .00005953 00000-0 39925-3 0 9999 2 56744 97.5509 341.9447 0007252 266.0128 94.0271 15.07201057 1413 SNIPE 2 1 56745U 23072C 23154.79562572 .00005901 00000-0 39433-3 0 9999 2 56745 97.5519 341.9465 0007548 269.7641 90.2722 15.07334437 1411 /EX